Vancouver Int'l Airport, British Columbia

Past 24 Hour Conditions

Date / Time
(PDT)
Conditions Temp
(°C)
Humidity
(%)
Dew Point
(°C)
Wind
(km/h)
Pressure
(kPa)
Visibility
(km)
31 August 2015
14:00 Light Rain 15 93 14 SE 31 gust 42 101.1 6
13:00 Light Rain 15 92 14 SE 27 gust 36 101.1 8
12:00 Light Rain 15 93 14 SE 27 101.1 13
11:00 Light Rain 15 92 14 SE 27 gust 36 101.1 4
10:00 Light Rain 15 92 14 SE 27 101.1 11
9:00 Light Rain 15 92 13 SE 30 101.1 6
8:00 Light Rain 15 91 13 SE 30 gust 44 101.0 8
7:00 Light Rain 15 89 13 SE 24 gust 39 101.0 10
6:00 Light Rain 14   90 13 SE 36 gust 48 101.0 16
5:00 Light Rain 15 87 13 SSE 34 101.0 19
4:00 Light Rain 15 89 13 SE 20 gust 29 101.1 16
3:00 Light Rain 15 89 13 ESE 16 101.1 13
2:00 Light Rain 14   93 13 E 17 101.1 13
1:00 Light Rain 15 91 13 ENE 22 101.2 13
00:00 Mostly Cloudy 15 89 13 E 21 101.2 24
30 August 2015
23:00 Rain 15 88 13 E 20 101.2 13
22:00 Light Rain 15 81 12 ESE 14 101.3 16
21:00 Light Rain 16 79 12 SE 13 101.3 19
20:00 Light Rain 16 76 12 SSE 17 101.3 19
19:00 Mostly Cloudy 17 67 11 S 24 101.2 32
18:00 Mostly Cloudy 18 61 11 S 28 gust 39 101.2 32
17:00 Mostly Cloudy 19   55 10 SSE 27 101.2 32
16:00 Mostly Cloudy 19   57 10 SSE 22 101.2 32
15:00 Mostly Cloudy 19   57 11 SSE 28 gust 39 101.2 32
14:00 Mostly Cloudy 19   63 11 SSE 31 gust 41 101.2 32
N/A Not available
↑ Highest temperature
↓ Lowest temperature

If you require additional historical weather information, please visit Climate Data Online.

What we are doing

Date modified: